Regional Weather Roundup
Issued by NWS New Orleans/Baton Rouge, LA

Home | Current Version | Previous Version | Text Only | Print | Product List | Glossary On
Versions: 1 2 3 4 5 6 7 8 9 10 11 12 13 14 15 16 17 18 19 20 21 22 23 24 25 26 27 28 29 30 31 32 33 34 35 36 37 38 39 40 41 42 43 44 45 46 47 48 49 50
000
ASUS44 KLIX 260311
RWRLIX
NEW ORLEANS REGIONAL WEATHER ROUNDUP
NATIONAL WEATHER SERVICE NEW ORLEANS LA
1000 PM CDT MON JUL 25 2016

NOTE: "FAIR" INDICATES FEW OR NO CLOUDS BELOW 12,000 FEET WITH NO
      SIGNIFICANT WEATHER AND/OR OBSTRUCTIONS TO VISIBILITY.
      SKY/WX - SKY CONDITION AND SIGNIFICANT WEATHER.
      TMP - AIR TEMPERATURE.     DP    - DEWPOINT TEMPERATURE.
      RH  - RELATIVE HUMIDITY.   PRES  - PRESSURE.
      HI  - HEAT INDEX.          WCI   - WIND CHILL INDEX.

*  THESE STATIONS ARE NOT NWS OR FAA STATIONS AND ARE NOT UNDER
   NWS QUALITY CONTROL.

LAZ038-040-048-061>063-065>067-069-260400-
SOUTHEAST LOUISIANA

CITY           SKY/WX    TMP DP  RH WIND       PRES   REMARKS
N.O. AUDUBON     N/A     83  76  80 MISG        N/A
N.O. INTL ARPT PTCLDY    84  75  74 NE3       29.93R
N.O. LAKEFRONT CLEAR     84  75  74 E6        29.94R
N.O. DOWNTOWN*   N/A     83  75  77 CALM      29.94R
RESERVE*         N/A     79  77  94 CALM      29.94R
SLIDELL        CLEAR     78  77  96 NE5       29.94R
BATON ROUGE    CLOUDY    78  74  87 CALM      29.94R
BOOTHVILLE     CLEAR     81  77  88 CALM      29.94R
BELLE CHASSE   MOCLDY    78  76  93 NE5       29.93R
BOGALUSA*        N/A     77  73  86 N3        29.98S
GALLIANO*      CLEAR     74  74 100 CALM      29.93R
NEW ROADS*       N/A     76  76  99 NE5       29.94R
GONZALES*        N/A     78  78 100 CALM      29.93R
HAMMOND*       MOCLDY    77  73  88 NE6       29.95R
HOUMA*         MOCLDY    76  76  98 N3        29.94R
PORT FOURCHON* PTCLDY    84  75  74 CALM      29.93R

$$

MSZ070-080>082-260400-
SOUTHERN MISSISSIPPI

CITY           SKY/WX    TMP DP  RH WIND       PRES   REMARKS
MCCOMB         PTCLDY    77  75  93 E5        29.98R
GULFPORT       HVY RAIN  79  76  90 E12       29.96R FOG
BILOXI         CLOUDY    79  77  94 CALM      29.95R THUNDER
PASCAGOULA     CLEAR     81  78  91 E5        29.95S

$$

COASTAL OBSERVATIONS
LAKE AND NEARSHORE STATIONS

STATION/POSITION TIME  TEMP    WIND        PRES    WAVE
                       AIR SEA DIR/SP/G            HT/PER
                 (UTC) (F)     (DEG/KT/KT) (MB)    (FT/S)
PASCAGOULA       0200   85     120/  8/ 12   N/A
WAVELAND YACHT   0200   85 88  150/  5/  7   N/A
GRAND ISLE       0200   83 90  230/  3/  5   N/A
SOUTHWEST PASS   0200          310/  5/ 10   N/A
NEW CANAL        0200   82 88   90/  2/  3   N/A
SHELL BEACH      0200   83 89  220/  1/  3   N/A

OFFSHORE STATIONS

STATION/POSITION TIME  TEMP    WIND        PRES    WAVE
                       AIR SEA DIR/SP/G            HT/PER
                 (UTC) (F)     (DEG/KT/KT) (MB)    (FT/S)
64 S DAUPHIN ISL 0200   83 87  190/ 10/ 12 1013.3

$$




USA.gov is the U.S. government's official web portal to all federal, state and local government web resources and services.